Crane Lake, MN

9:11 PM CDT on September 24, 2016 (GMT -0500)
Crane Lake

Weather History for KCDD - October, 2011

Change the Weather History Date:

Sunday, October 16, 2011

  Actual Average Record
Temperature  
Mean Temperature 40 °F -  
Max Temperature 42 °F 49 °F 69 °F (2012)
Min Temperature 37 °F 33 °F 17 °F (2002)
Degree Days  
Heating Degree Days 26    
Moisture  
Dew Point 29 °F    
Average Humidity 66    
Maximum Humidity 81    
Minimum Humidity 42    
Precipitation  
Precipitation 0.00 in - - ()
Sea Level Pressure  
Sea Level Pressure 29.62 in    
Wind  
Wind Speed 7 mph (West)    
Max Wind Speed 16 mph    
Max Gust Speed 32 mph    
Visibility 10 miles    
Events      
Averages and records for this station are not official NWS values.
T = Trace of Precipitation, MM = Missing Value Source: NWS Daily Summary

Daily Weather History Graph

Daily Weather History Graph

Search for Another Location

Airport or City:

Trip Planner

Search our weather history database for the weather conditions in past years. The results will help you decide how hot, cold, wet, or windy it might be!

Date:

Astronomy

Oct. 16, 2011 Rise Set
Actual Time 7:30 AM CDT 6:19 PM CDT
Civil Twilight 6:59 AM CDT 6:51 PM CDT
Nautical Twilight 6:23 AM CDT 7:27 PM CDT
Astronomical Twilight 5:46 AM CDT 8:03 PM CDT
Moon 8:45 PM CDT (10/16) 12:08 PM CDT (10/16)
Length of Visible Light 11h 51m
Length of Day
10h 48m
Waning Gibbous, 82% of the Moon is Illuminated
Oct 16
Waning Gibbous
Oct 19
Last Quarter
Oct 26
New
Nov 2
First Quarter
Nov 10
Full

Hourly Weather History & Observations

Time (CDT) Temp. Windchill Dew Point Humidity Pressure Visibility Wind Dir Wind Speed Gust Speed Precip Events Conditions
12:32 AM 39.2 °F 34.2 °F 30.2 °F 70% 29.66 in 10.0 mi WSW 6.9 mph - N/A   Scattered Clouds
12:51 AM 41.0 °F 39.0 °F 30.2 °F 65% 29.66 in 10.0 mi West 3.5 mph - N/A   Scattered Clouds
1:12 AM 41.0 °F 39.0 °F 32.0 °F 70% 29.66 in 10.0 mi WSW 3.5 mph - N/A   Scattered Clouds
1:31 AM 41.0 °F 38.0 °F 32.0 °F 70% 29.65 in 10.0 mi WSW 4.6 mph - N/A   Scattered Clouds
1:52 AM 39.2 °F 37.0 °F 32.0 °F 75% 29.65 in 10.0 mi SW 3.5 mph - N/A   Clear
2:11 AM 39.2 °F - 32.0 °F 75% 29.65 in 10.0 mi Calm Calm - N/A   Clear
2:31 AM 39.2 °F 35.9 °F 32.0 °F 75% 29.65 in 10.0 mi WSW 4.6 mph - N/A   Clear
2:51 AM 39.2 °F 37.0 °F 32.0 °F 75% 29.65 in 10.0 mi WSW 3.5 mph - N/A   Clear
3:12 AM 37.4 °F 34.9 °F 32.0 °F 81% 29.64 in 10.0 mi SW 3.5 mph - N/A   Clear
3:52 AM 39.2 °F 35.9 °F 32.0 °F 75% 29.63 in 10.0 mi SW 4.6 mph - N/A   Scattered Clouds
4:11 AM 39.2 °F 37.0 °F 33.8 °F 81% 29.63 in 10.0 mi SW 3.5 mph - N/A   Scattered Clouds
4:32 AM 39.2 °F 35.0 °F 33.8 °F 81% 29.62 in 10.0 mi SW 5.8 mph - N/A   Scattered Clouds
4:52 AM 39.2 °F 35.0 °F 33.8 °F 81% 29.62 in 10.0 mi WSW 5.8 mph - N/A   Scattered Clouds
5:12 AM 39.2 °F 35.0 °F 33.8 °F 81% 29.63 in 10.0 mi WSW 5.8 mph - N/A   Scattered Clouds
5:31 AM 39.2 °F 35.9 °F 33.8 °F 81% 29.62 in 10.0 mi WSW 4.6 mph - N/A   Scattered Clouds
5:52 AM 39.2 °F 34.2 °F 33.8 °F 81% 29.63 in 10.0 mi West 6.9 mph - N/A   Scattered Clouds
6:11 AM 39.2 °F 37.0 °F 33.8 °F 81% 29.62 in 10.0 mi WSW 3.5 mph - N/A   Scattered Clouds
6:32 AM 39.2 °F 35.0 °F 33.8 °F 81% 29.62 in 10.0 mi WSW 5.8 mph - N/A   Scattered Clouds
6:52 AM 39.2 °F 32.5 °F 33.8 °F 81% 29.62 in 10.0 mi WSW 10.4 mph - N/A   Clear
7:12 AM 39.2 °F 33.6 °F 32.0 °F 75% 29.62 in 10.0 mi West 8.1 mph - N/A   Clear
7:32 AM 39.2 °F 33.6 °F 30.2 °F 70% 29.62 in 10.0 mi West 8.1 mph - N/A   Scattered Clouds
7:52 AM 37.4 °F 32.8 °F 30.2 °F 75% 29.62 in 10.0 mi West 5.8 mph - N/A   Clear
8:11 AM 39.2 °F 33.6 °F 30.2 °F 70% 29.62 in 10.0 mi West 8.1 mph 16.1 mph N/A   Scattered Clouds
8:32 AM 39.2 °F 35.0 °F 30.2 °F 70% 29.62 in 10.0 mi West 5.8 mph 17.3 mph N/A   Scattered Clouds
9:11 AM 39.2 °F 33.0 °F 32.0 °F 75% 29.62 in 10.0 mi West 9.2 mph 17.3 mph N/A   Scattered Clouds
9:32 AM 39.2 °F 35.9 °F 30.2 °F 70% 29.62 in 10.0 mi West 4.6 mph 17.3 mph N/A   Scattered Clouds
9:52 AM 39.2 °F 33.6 °F 30.2 °F 70% 29.62 in 10.0 mi West 8.1 mph 19.6 mph N/A   Mostly Cloudy
10:11 AM 41.0 °F 34.7 °F 30.2 °F 65% 29.62 in 10.0 mi West 10.4 mph 20.7 mph N/A   Scattered Clouds
10:31 AM 41.0 °F 35.8 °F 30.2 °F 65% 29.62 in 10.0 mi West 8.1 mph 19.6 mph N/A   Scattered Clouds
10:53 AM 42.8 °F 37.0 °F 30.2 °F 61% 29.62 in 10.0 mi West 10.4 mph 18.4 mph N/A   Scattered Clouds
11:11 AM 42.8 °F 35.4 °F 28.4 °F 57% 29.61 in 10.0 mi West 15.0 mph 32.2 mph N/A   Scattered Clouds
11:31 AM 42.8 °F 37.0 °F 32.0 °F 66% 29.61 in 10.0 mi West 10.4 mph 25.3 mph N/A   Scattered Clouds
11:41 AM 42.8 °F 36.6 °F 28.4 °F 57% 29.61 in 10.0 mi West 11.5 mph 25.3 mph N/A   Scattered Clouds
12:21 PM 41.0 °F 34.7 °F 26.6 °F 57% 29.61 in 10.0 mi WSW 10.4 mph 26.5 mph N/A   Scattered Clouds
12:41 PM 39.2 °F 32.0 °F 26.6 °F 61% 29.62 in 10.0 mi West 11.5 mph 29.9 mph N/A   Mostly Cloudy
1:01 PM 39.2 °F 32.0 °F 26.6 °F 61% 29.62 in 10.0 mi West 11.5 mph 24.2 mph N/A   Mostly Cloudy
1:21 PM 39.2 °F 33.6 °F 26.6 °F 61% 29.61 in 10.0 mi West 8.1 mph 20.7 mph N/A   Mostly Cloudy
2:01 PM 39.2 °F 32.0 °F 24.8 °F 56% 29.61 in 10.0 mi West 11.5 mph 28.8 mph N/A   Scattered Clouds
2:41 PM 39.2 °F 35.0 °F 24.8 °F 56% 29.61 in 10.0 mi West 5.8 mph 19.6 mph N/A   Scattered Clouds
3:01 PM 39.2 °F 34.2 °F 24.8 °F 56% 29.60 in 10.0 mi West 6.9 mph 18.4 mph N/A   Scattered Clouds
3:21 PM 41.0 °F 35.8 °F 24.8 °F 53% 29.60 in 10.0 mi West 8.1 mph 19.6 mph N/A   Mostly Cloudy
3:41 PM 41.0 °F 36.4 °F 24.8 °F 53% 29.60 in 10.0 mi WSW 6.9 mph - N/A   Scattered Clouds
4:01 PM 42.8 °F 37.5 °F 23.0 °F 46% 29.59 in 10.0 mi West 9.2 mph 18.4 mph N/A   Scattered Clouds
4:21 PM 42.8 °F 37.0 °F 21.2 °F 42% 29.59 in 10.0 mi West 10.4 mph 17.3 mph N/A   Scattered Clouds
5:01 PM 42.8 °F 38.6 °F 23.0 °F 46% 29.59 in 10.0 mi West 6.9 mph 17.3 mph N/A   Clear
5:21 PM 42.8 °F 38.0 °F 24.8 °F 49% 29.60 in 10.0 mi WNW 8.1 mph 23.0 mph N/A   Clear
6:01 PM 42.8 °F 35.1 °F 26.6 °F 53% 29.60 in 10.0 mi WNW 16.1 mph 25.3 mph N/A   Clear
6:21 PM 41.0 °F 38.0 °F 28.4 °F 61% 29.60 in 10.0 mi West 4.6 mph 26.5 mph N/A   Clear
6:41 PM 42.8 °F 38.0 °F 28.4 °F 57% 29.60 in 10.0 mi West 8.1 mph 32.2 mph N/A   Clear
7:01 PM 42.8 °F 37.5 °F 28.4 °F 57% 29.60 in 10.0 mi WNW 9.2 mph 24.2 mph N/A   Scattered Clouds
7:21 PM 42.8 °F 38.0 °F 28.4 °F 57% 29.60 in 10.0 mi WNW 8.1 mph 27.6 mph N/A   Scattered Clouds
8:01 PM 39.2 °F 34.2 °F 30.2 °F 70% 29.60 in 10.0 mi West 6.9 mph 16.1 mph N/A   Clear
8:21 PM 42.8 °F 37.5 °F 28.4 °F 57% 29.59 in 10.0 mi WNW 9.2 mph 21.9 mph N/A   Clear
8:41 PM 42.8 °F 37.0 °F 28.4 °F 57% 29.60 in 10.0 mi West 10.4 mph 24.2 mph N/A   Clear
9:21 PM 42.8 °F 36.2 °F 24.8 °F 49% 29.59 in 10.0 mi WNW 12.7 mph 32.2 mph N/A   Clear
9:41 PM 42.8 °F 37.5 °F 24.8 °F 49% 29.58 in 10.0 mi West 9.2 mph 20.7 mph N/A   Clear
10:21 PM 44.6 °F 40.2 °F 24.8 °F 46% 29.58 in 10.0 mi West 8.1 mph 25.3 mph N/A   Scattered Clouds
10:41 PM 44.6 °F 42.2 °F 24.8 °F 46% 29.57 in 10.0 mi West 4.6 mph - N/A   Scattered Clouds
11:01 PM 44.6 °F 40.7 °F 24.8 °F 46% 29.57 in 10.0 mi West 6.9 mph 18.4 mph N/A   Scattered Clouds
11:21 PM 44.6 °F 38.8 °F 24.8 °F 46% 29.57 in 10.0 mi WNW 11.5 mph 21.9 mph N/A   Scattered Clouds